Weather History for South Hill, VA

Change the Weather History Date:

Monday, September 9, 2013

  Actual Average (KEMV) Record (KEMV)
Temperature  
Mean Temperature 76 °F -  
Max Temperature 84 °F 83 °F 96 °F (1985)
Min Temperature 69 °F 57 °F 47 °F (1986)
Cooling Degree Days 12    
Growing Degree Days 26 (Base 50)    
Moisture  
Dew Point 72 °F    
Average Humidity 88    
Maximum Humidity 100    
Minimum Humidity 70    
Precipitation  
Precipitation 0.00 in - - ()
Sea Level Pressure  
Sea Level Pressure 30.18 in    
Wind  
Wind Speed 1 mph (NNE)    
Max Wind Speed 7 mph    
Max Gust Speed -    
Visibility 9 miles    
Events      
Averages and records for this station are not official NWS values.
T = Trace of Precipitation, MM = Missing Value Source: NWS Daily Summary

Daily Weather History Graph

Daily Weather History Graph

Search for Another Location

Airport:

Trip Planner

Search our weather history database for the weather conditions in past years. The results will help you decide how hot, cold, wet, or windy it might be!

Date:

Astronomy

Sep. 09, 2013 Rise Set
Actual Time 6:49 AM EDT 7:28 PM EDT
Civil Twilight 6:23 AM EDT 7:54 PM EDT
Nautical Twilight 5:52 AM EDT 8:25 PM EDT
Astronomical Twilight 5:21 AM EDT 8:56 PM EDT
Moon 11:01 AM EDT (9/9) 9:52 PM EDT (9/9)
Length of Visible Light 13h 30m
Length of Day
12h 38m
Waxing Crescent, 19% of the Moon is Illuminated
Sep 9
Waxing Crescent
Sep 12
First Quarter
Sep 19
Full
Sep 26
Last Quarter
Oct 4
New

Hourly Weather History & Observations

Time (EDT) Temp. Heat Index Dew Point Humidity Pressure Visibility Wind Dir Wind Speed Gust Speed Precip Events Conditions
12:15 AM 69.8 °F - 69.8 °F 100% 30.06 in 10.0 mi Calm Calm - N/A   Clear
12:35 AM 69.8 °F - 69.8 °F 100% 30.06 in 10.0 mi Calm Calm - N/A   Mostly Cloudy
12:55 AM 69.8 °F - 69.8 °F 100% 30.06 in 10.0 mi Calm Calm - N/A   Scattered Clouds
1:15 AM 69.8 °F - 69.8 °F 100% 30.07 in 10.0 mi Calm Calm - N/A   Mostly Cloudy
1:35 AM - - - N/A% 30.07 in 10.0 mi Calm Calm - N/A   Overcast
1:55 AM 71.6 °F - 71.6 °F 100% 30.08 in 10.0 mi North 3.5 mph - N/A   Overcast
2:15 AM 71.6 °F - 71.6 °F 100% 30.75 in 10.0 mi Calm Calm - N/A   Overcast
2:35 AM 71.6 °F - 71.6 °F 100% 30.08 in 10.0 mi Calm Calm - N/A   Overcast
2:55 AM 71.6 °F - 71.6 °F 100% 30.08 in 10.0 mi Calm Calm - N/A   Overcast
3:15 AM 71.6 °F - 71.6 °F 100% 30.08 in 10.0 mi Calm Calm - N/A   Mostly Cloudy
3:35 AM 71.6 °F - 71.6 °F 100% 30.08 in 10.0 mi Calm Calm - N/A   Overcast
3:55 AM 69.8 °F - 69.8 °F 100% 30.09 in 7.0 mi Calm Calm - N/A   Mostly Cloudy
4:15 AM 69.8 °F - 69.8 °F 100% 30.09 in 10.0 mi Calm Calm - N/A   Overcast
4:35 AM 71.6 °F - 71.6 °F 100% 30.09 in 10.0 mi Calm Calm - N/A   Overcast
4:55 AM 73.4 °F - 71.6 °F 94% 30.09 in 10.0 mi Calm Calm - N/A   Overcast
5:15 AM 73.4 °F - 71.6 °F 94% 30.10 in 10.0 mi Calm Calm - N/A   Overcast
5:35 AM 71.6 °F - 71.6 °F 100% 30.11 in 10.0 mi Calm Calm - N/A   Overcast
5:55 AM 73.4 °F - 71.6 °F 94% 30.65 in 10.0 mi Calm Calm - N/A   Overcast
6:15 AM 73.4 °F - 69.8 °F 88% 30.13 in 10.0 mi North 4.6 mph - N/A   Mostly Cloudy
6:35 AM 71.6 °F - 69.8 °F 94% 30.13 in 10.0 mi NNE 4.6 mph - N/A   Mostly Cloudy
6:55 AM 73.4 °F - 71.6 °F 94% 30.14 in 10.0 mi NNE 3.5 mph - N/A   Mostly Cloudy
7:15 AM 71.6 °F - 71.6 °F 100% 30.16 in 10.0 mi Calm Calm - N/A   Mostly Cloudy
7:35 AM 71.6 °F - 71.6 °F 100% 30.16 in 10.0 mi North 4.6 mph - N/A   Mostly Cloudy
7:55 AM 71.6 °F - 71.6 °F 100% 30.17 in 7.0 mi NNE 3.5 mph - N/A   Mostly Cloudy
8:15 AM 73.4 °F - 73.4 °F 100% 30.17 in 10.0 mi NNE 3.5 mph - N/A   Scattered Clouds
8:35 AM 73.4 °F - 73.4 °F 100% 30.18 in 10.0 mi Calm Calm - N/A   Mostly Cloudy
8:55 AM 75.2 °F - 73.4 °F 94% 30.18 in 10.0 mi NE 4.6 mph - N/A   Mostly Cloudy
9:15 AM 75.2 °F - 73.4 °F 94% 30.19 in 10.0 mi NNE 4.6 mph - N/A   Mostly Cloudy
9:35 AM 75.2 °F - 73.4 °F 94% 30.20 in 10.0 mi Calm Calm - N/A   Overcast
9:55 AM 75.2 °F - 73.4 °F 94% 30.21 in 10.0 mi NNE 6.9 mph - N/A   Overcast
10:15 AM 75.2 °F - 71.6 °F 89% 30.21 in 10.0 mi NE 4.6 mph - N/A   Overcast
10:35 AM 77.0 °F - 71.6 °F 83% 30.21 in 10.0 mi ENE 3.5 mph - N/A   Mostly Cloudy
10:55 AM 78.8 °F - 71.6 °F 78% 30.21 in 10.0 mi NE 4.6 mph - N/A   Mostly Cloudy
11:15 AM 80.6 °F 84.6 °F 71.6 °F 74% 30.21 in 10.0 mi NE 3.5 mph - N/A   Mostly Cloudy
11:35 AM 78.8 °F - 71.6 °F 78% 30.22 in 10.0 mi Calm Calm - N/A   Unknown
11:55 AM 80.6 °F 84.6 °F 71.6 °F 74% 30.21 in 10.0 mi ENE 3.5 mph - N/A   Unknown
12:15 PM 80.6 °F 84.6 °F 71.6 °F 74% 30.21 in 10.0 mi ESE 4.6 mph - N/A   Scattered Clouds
12:35 PM 82.4 °F 87.2 °F 71.6 °F 70% 30.21 in 10.0 mi Calm Calm - N/A   Scattered Clouds
12:55 PM 82.4 °F 88.2 °F 73.4 °F 74% 30.20 in 10.0 mi Calm Calm - N/A   Scattered Clouds
1:15 PM 82.4 °F 87.2 °F 71.6 °F 70% 30.20 in 10.0 mi ENE 3.5 mph - N/A   Mostly Cloudy
1:35 PM 82.4 °F 88.2 °F 73.4 °F 74% 30.20 in 1.0 mi Calm Calm - N/A   Scattered Clouds
1:55 PM 82.4 °F 87.2 °F 71.6 °F 70% 30.20 in 10.0 mi Calm Calm - N/A   Scattered Clouds
2:15 PM 84.2 °F 90.9 °F 73.4 °F 70% 30.20 in 10.0 mi Calm Calm - N/A   Scattered Clouds
2:35 PM 84.2 °F 90.9 °F 73.4 °F 70% 30.20 in 10.0 mi Calm Calm - N/A   Scattered Clouds
2:55 PM 84.2 °F 90.9 °F 73.4 °F 70% 30.20 in 10.0 mi North 4.6 mph - N/A   Scattered Clouds
3:15 PM 84.2 °F 90.9 °F 73.4 °F 70% 30.19 in 10.0 mi NNE 3.5 mph - N/A   Scattered Clouds
3:35 PM 84.2 °F 90.9 °F 73.4 °F 70% 30.18 in 10.0 mi North 4.6 mph - N/A   Scattered Clouds
3:55 PM 84.2 °F 90.9 °F 73.4 °F 70% 30.18 in 10.0 mi Calm Calm - N/A   Scattered Clouds
4:15 PM 84.2 °F 90.9 °F 73.4 °F 70% 30.18 in 10.0 mi Calm Calm - N/A   Scattered Clouds
4:35 PM 84.2 °F 90.9 °F 73.4 °F 70% 30.18 in 10.0 mi North - - N/A   Scattered Clouds
4:55 PM 84.2 °F 90.9 °F 73.4 °F 70% 30.18 in 10.0 mi Calm Calm - N/A   Scattered Clouds
5:15 PM 84.2 °F 90.9 °F 73.4 °F 70% 30.18 in 10.0 mi Calm Calm - N/A   Mostly Cloudy
5:35 PM 84.2 °F 90.9 °F 73.4 °F 70% 30.18 in 10.0 mi Calm Calm - N/A   Scattered Clouds
5:55 PM 84.2 °F 90.9 °F 73.4 °F 70% 30.18 in 10.0 mi Calm Calm - N/A   Clear
6:35 PM 82.4 °F 88.2 °F 73.4 °F 74% 30.18 in 10.0 mi Calm Calm - N/A   Clear
6:55 PM 82.4 °F 88.2 °F 73.4 °F 74% 30.18 in 10.0 mi Calm Calm - N/A   Clear
7:15 PM 80.6 °F 85.4 °F 73.4 °F 79% 30.18 in 10.0 mi Calm Calm - N/A   Clear
7:35 PM 78.8 °F - 73.4 °F 83% 30.18 in 10.0 mi Calm Calm - N/A   Clear
7:55 PM 75.2 °F - 73.4 °F 94% 30.18 in 10.0 mi Calm Calm - N/A   Clear
8:15 PM 75.2 °F - 75.2 °F 100% 30.19 in 10.0 mi Calm Calm - N/A   Clear
8:35 PM 73.4 °F - 73.4 °F 100% 30.20 in 10.0 mi Calm Calm - N/A   Clear
8:55 PM 73.4 °F - 73.4 °F 100% 30.20 in 10.0 mi Calm Calm - N/A   Scattered Clouds
9:15 PM 73.4 °F - 73.4 °F 100% 30.21 in 10.0 mi Calm Calm - N/A   Clear
9:35 PM 73.4 °F - 73.4 °F 100% 30.21 in 10.0 mi Calm Calm - N/A   Clear
10:19 PM 73.4 °F - 73.4 °F 100% 30.21 in 7.0 mi Calm Calm - N/A   Clear
10:35 PM 73.4 °F - 73.4 °F 100% 30.21 in 7.0 mi Calm Calm - N/A   Clear
10:55 PM 73.4 °F - 73.4 °F 100% 30.21 in 5.0 mi Calm Calm - N/A   Clear
11:15 PM 73.4 °F - 73.4 °F 100% 30.21 in 5.0 mi Calm Calm - N/A   Clear
11:35 PM 73.4 °F - 73.4 °F 100% 30.22 in 5.0 mi Calm Calm - N/A   Clear
11:55 PM 71.6 °F - 71.6 °F 100% 30.22 in 3.0 mi Calm Calm - N/A   Clear